ORBCOMM FM112

Last updated on Wed Aug 19 2026 00:03:10 GMT+0000 (Coordinated Universal Time)

1 41184U 15081F 26230.32528509 .00000401 00000+0 12085-3 0 9993 2 41184 47.0004 336.3939 0002794 152.6218 207.4815 14.58976228568028
UTC large
Height (km)
Speed (km/s)
/
Latitude / Longitude
Inclination (degrees)
Orbital Period (minutes)
Azimuth
Elevation
Range (km)
Doppler Factor

Next 0 passes for location: London (51.5072 / 0.1276)

No passes found over London.
ORBCOMM FM112